GFSGL_con_lsi_021.txt.gz
Lid_Strength_Index
4 5 4 4 4 5 5 5 4 4 3 3 4 4 4 4 3 3 3 3 3 4 4 4 5 5 5 6 6 6 7 7 9 8 6 6 6 5 5 5 4 4 5
4 4 4 4 5 6 5 5 4 4 4 4 4 4 4 3 3 3 4 4 5 5 5 5 6 6 6 6 6 6 6 6 7 9 7 7 6 6 6 6 6 6 5
4 4 4 5 6 6 5 5 4 4 4 4 4 3 3 3 4 5 5 5 6 6 6 6 6 6 7 7 7 7 7 8 7 8 9 7 7 7 7 6 6 6 6
4 4 4 5 5 5 5 4 4 3 3 2 2 3 4 5 5 5 5 5 6 6 6 7 7 7 8 8 8 8 8 8 8 9 9 8 8 7 7 8 8 6 7
4 4 4 4 3 4 4 3 2 2 2 2 4 5 5 6 6 6 6 6 7 7 7 7 7 7 8 8 8 8 8 9 9 10 10 9 9 9 9 8 8 7 7
4 4 4 4 4 3 3 2 2 1 2 4 5 6 6 7 7 7 7 7 7 8 8 8 8 8 8 8 8 8 8 9 9 9 9 9 8 8 7 7 7 8 9
5 4 4 5 4 3 3 4 5 5 5 6 6 6 7 7 7 7 8 8 8 8 8 8 8 8 7 7 8 8 8 8 8 8 9 9 9 8 7 8 7 7 7
5 5 5 5 5 5 5 5 5 6 6 6 7 7 7 7 8 8 8 7 8 8 8 8 8 8 8 9 9 8 7 7 7 8 8 8 7 7 7 7 7 7 6
7 7 6 6 5 5 6 7 6 6 6 6 6 7 7 7 8 8 7 7 8 8 7 8 8 8 8 7 8 8 8 8 7 7 7 7 7 7 7 7 8 9 9
6 6 5 5 6 7 7 7 6 6 7 7 7 7 7 7 7 7 7 7 8 8 7 7 7 8 8 8 8 9 10 9 9 8 8 7 7 6 7 7 7 9 9
5 5 5 6 6 6 7 7 7 7 7 7 7 7 6 6 6 7 7 7 7 7 8 8 7 7 7 8 9 9 9 8 9 8 8 7 7 6 6 6 6 7 8
5 6 6 6 7 7 7 7 7 7 7 7 7 6 5 5 6 6 6 6 6 7 7 7 6 8 9 10 10 9 9 9 8 8 8 8 8 7 6 6 6 5 5
6 6 6 7 7 7 7 7 7 7 7 7 7 7 6 6 5 6 6 6 6 7 6 7 8 10 11 10 10 10 10 10 9 9 8 7 7 6 5 5 5 5 5
6 7 7 7 7 6 6 7 7 6 7 7 7 7 7 7 6 6 6 6 7 7 8 8 10 11 11 11 10 10 10 10 10 10 9 7 6 7 6 5 6 6 7
7 7 7 7 7 7 7 7 6 5 6 7 7 7 8 8 7 6 7 7 8 9 9 10 11 12 12 11 11 11 10 10 10 10 9 8 7 6 6 5 5 5 6
7 7 7 7 7 7 7 7 6 6 6 7 7 7 7 7 7 7 8 8 9 10 10 12 13 13 13 13 12 12 12 12 11 11 10 9 8 8 7 6 5 6 6
8 7 7 8 7 8 8 8 8 6 7 8 8 8 8 8 8 8 9 10 10 11 12 13 14 14 14 13 13 13 13 12 11 11 11 11 9 8 7 7 6 6 6
8 10 8 7 7 8 8 8 8 8 9 9 9 9 10 9 9 10 11 11 13 13 13 14 14 14 14 14 14 14 13 12 12 12 12 11 11 9 9 8 7 6 5
7 7 7 7 8 9 8 7 7 8 9 9 10 10 11 11 11 11 12 13 14 14 15 14 14 14 15 14 14 14 14 13 13 12 12 12 11 11 10 10 9 8 7
7 7 8 7 7 8 8 8 8 8 9 10 10 11 11 11 12 13 13 14 14 15 15 15 15 15 15 15 14 15 14 13 13 13 12 12 12 11 11 11 10 9 8
6 7 8 7 7 8 8 8 8 9 9 10 10 12 14 13 13 14 14 14 15 15 15 15 15 15 15 15 15 15 15 14 14 14 13 12 12 12 11 10 10 10 9
7 7 8 8 7 8 8 8 9 9 10 10 10 11 14 12 13 14 14 15 15 15 15 15 16 16 16 16 16 16 15 15 15 15 13 13 12 11 11 10 10 10 10
7 7 8 8 8 10 8 8 9 9 9 10 11 11 12 13 13 14 14 15 15 16 16 15 16 16 16 16 16 16 16 16 16 15 15 13 12 12 11 11 11 11 11
7 8 8 8 8 8 9 9 9 11 11 10 10 11 12 12 13 14 14 14 15 15 15 16 16 17 16 16 16 16 17 17 16 15 15 14 13 13 12 12 12 12 12
7 7 7 7 7 8 9 9 9 9 9 10 10 10 11 12 12 13 13 14 15 15 16 16 17 17 17 17 17 17 19 19 18 18 14 14 15 15 15 14 14 12 13
7 7 7 6 7 7 8 8 8 9 10 9 9 10 11 12 12 13 13 13 14 15 16 16 16 17 17 16 17 18 19 19 18 19 15 14 15 15 14 15 15 13 14

GFSGL_con_lsi_024.txt.gz
Lid_Strength_Index
2 2 2 1 2 2 3 3 2 2 3 4 3 4 4 3 2 2 2 2 2 3 3 3 3 3 3 4 4 5 5 6 8 6 5 4 4 4 4 4 4 4 4
3 3 2 2 2 3 3 3 2 3 3 3 3 3 2 2 1 1 2 2 3 3 3 3 4 4 4 4 4 4 5 5 6 7 6 6 5 4 4 4 5 4 4
4 3 3 3 3 3 3 3 3 3 2 2 1 1 1 2 2 2 3 3 3 3 4 4 4 4 5 4 5 5 5 5 5 6 7 5 5 5 5 5 5 4 4
4 4 4 4 3 3 3 3 2 2 1 1 1 1 1 2 3 3 4 4 4 4 4 4 4 5 5 5 6 6 6 6 6 7 7 7 6 5 5 6 6 5 5
5 5 5 3 4 3 4 3 2 1 1 1 1 2 3 3 4 5 5 5 5 5 5 5 5 5 6 6 7 7 6 7 7 8 8 8 7 7 7 6 7 6 6
4 5 5 4 3 3 2 2 2 2 2 3 3 3 3 4 6 7 6 6 5 6 6 6 6 6 6 7 7 7 8 9 9 9 8 9 8 7 7 7 7 7 8
5 5 4 4 4 3 3 3 3 3 3 3 3 3 4 4 6 7 7 6 5 5 5 6 6 6 6 7 7 7 8 8 8 8 9 8 8 7 7 7 6 7 6
5 4 4 4 4 3 3 3 3 4 4 4 4 4 4 4 6 7 7 5 5 5 5 5 6 7 7 7 8 7 7 7 7 7 6 6 6 6 7 7 7 6 6
4 4 4 3 4 3 4 4 4 4 4 4 4 4 5 4 5 6 6 5 5 6 6 6 6 7 7 7 7 7 7 6 6 6 6 7 7 7 6 6 7 8 8
4 3 3 3 3 4 4 4 4 4 4 4 5 4 5 4 5 6 6 5 6 6 5 5 6 6 7 7 7 7 9 9 8 7 7 6 6 6 7 6 6 8 8
3 3 3 3 3 4 4 4 4 4 5 5 5 5 4 4 5 5 6 6 6 6 6 6 5 6 8 8 8 8 9 8 9 8 7 6 6 6 6 5 5 5 7
3 3 3 3 4 5 4 4 4 5 5 5 6 5 4 4 5 5 6 5 5 5 6 5 5 7 8 9 9 9 10 9 8 8 7 7 6 6 5 5 4 5 4
3 3 3 4 5 4 4 5 5 5 6 6 6 6 6 5 5 6 6 5 5 5 5 6 7 8 9 9 9 10 9 8 9 9 8 8 6 5 5 5 4 4 4
3 4 4 4 5 4 4 5 5 6 7 7 6 7 6 6 5 6 5 5 6 6 7 6 8 9 9 9 9 9 8 8 9 9 9 7 6 6 6 5 5 4 5
4 4 4 5 4 5 5 5 6 6 6 6 7 7 7 8 7 7 7 7 7 8 8 8 9 10 10 10 10 10 9 9 9 9 8 8 7 6 7 6 6 5 5
4 4 5 5 4 5 6 6 6 7 7 7 8 8 7 8 8 8 8 9 9 9 9 10 11 11 11 11 11 10 10 10 10 9 9 9 9 7 7 6 6 6 6
4 5 5 6 5 6 6 7 7 6 7 7 8 9 9 9 9 9 9 10 10 10 11 11 11 12 12 11 11 11 11 11 10 10 10 10 9 9 8 7 7 6 5
5 7 5 5 6 6 7 7 7 7 7 6 7 9 9 9 10 10 10 10 10 11 12 12 12 12 12 12 12 12 12 11 11 11 10 10 10 10 9 9 8 8 7
6 6 6 6 6 6 6 7 7 7 7 7 7 8 8 9 10 10 11 11 12 12 12 13 12 12 12 12 12 12 12 11 11 11 11 11 10 10 9 9 9 9 8
6 7 6 6 6 6 7 7 7 7 7 7 7 8 9 9 10 11 11 12 12 12 13 13 13 13 13 13 12 12 12 12 12 11 11 11 10 10 10 9 9 9 9
6 6 6 6 6 7 7 7 7 7 7 7 7 8 12 10 11 11 12 12 13 13 13 13 13 13 13 13 13 12 12 12 12 12 12 11 10 10 10 9 9 8 8
7 7 6 6 6 7 7 7 7 7 7 7 7 8 11 9 11 11 12 12 13 13 13 13 13 13 13 13 13 13 13 13 13 13 12 11 11 10 10 9 9 9 9
7 6 7 7 6 7 6 6 7 7 7 7 7 8 8 9 10 11 11 12 13 13 13 13 13 14 13 13 13 13 14 14 13 13 13 12 11 11 10 10 10 10 10
7 6 6 6 6 6 6 6 6 7 7 7 7 7 8 9 9 11 11 11 12 12 13 14 14 14 14 14 13 13 14 15 14 13 12 12 11 11 11 11 10 11 10
6 6 6 6 6 6 6 6 6 6 7 7 7 7 7 8 9 9 10 11 12 12 13 14 14 14 15 15 15 15 16 16 15 16 12 12 12 12 12 11 11 11 11
6 6 6 5 6 6 6 6 6 6 7 7 7 7 7 8 8 9 10 11 11 12 13 13 14 15 15 14 15 16 16 16 16 15 12 12 13 13 12 13 12 11 12

GFSGL_con_lsi_030.txt.gz
Lid_Strength_Index
5 5 5 5 4 4 4 4 4 4 4 4 3 3 3 2 2 2 2 2 2 2 3 3 3 2 3 3 3 3 3 4 6 5 4 4 4 4 4 3 3 4 4
6 5 5 4 4 4 4 3 3 3 3 2 2 2 2 2 2 2 2 3 3 4 3 4 4 3 5 5 5 5 5 5 6 8 6 6 5 5 4 4 4 3 4
6 5 5 5 4 4 4 4 3 3 2 2 2 2 2 1 2 3 3 4 4 5 5 5 5 5 5 5 5 5 5 5 6 7 7 7 7 6 6 6 6 6 4
5 5 5 5 5 4 4 3 3 2 2 2 2 2 2 3 3 4 4 4 5 5 5 5 5 5 5 5 6 7 6 8 8 8 8 7 7 6 6 7 8 7 6
5 5 5 5 5 4 3 3 2 2 2 2 3 3 3 3 5 6 5 6 6 6 6 5 5 4 3 4 5 7 7 8 9 9 9 9 9 8 9 8 9 9 8
5 5 4 5 4 3 3 3 2 3 2 3 3 3 4 4 6 6 6 7 6 6 7 6 4 3 3 3 4 4 5 8 9 10 10 10 10 9 9 10 10 10 11
5 4 3 3 3 3 3 2 3 3 3 4 4 4 5 5 5 5 6 7 7 6 6 5 4 3 3 4 5 5 5 5 7 8 10 9 10 9 9 9 10 10 9
5 4 4 4 3 2 2 3 3 4 4 5 5 5 5 5 4 5 6 7 7 6 6 6 6 5 5 5 5 6 6 6 6 6 7 8 8 7 7 7 7 7 7
4 4 3 3 3 3 3 3 4 4 5 5 4 5 6 6 5 4 5 7 7 7 6 5 5 6 4 3 5 7 7 7 5 5 5 5 5 5 5 7 9 10 11
3 2 2 1 1 2 2 3 3 4 4 4 5 5 5 6 4 4 4 6 8 7 7 5 4 5 4 4 6 7 8 9 8 8 8 7 7 7 7 7 8 9 10
2 1 1 1 1 1 2 3 3 4 5 6 6 6 6 5 6 4 5 7 8 8 7 7 6 4 5 5 5 7 8 7 8 8 9 9 8 8 7 6 6 7 9
1 1 1 1 2 2 3 3 4 5 6 7 8 7 6 5 4 5 5 6 7 8 8 7 6 5 5 5 6 6 6 7 9 10 10 9 8 8 7 6 6 6 6
2 1 1 1 1 2 3 4 6 6 7 8 7 8 7 6 6 6 7 7 7 8 7 7 7 6 6 7 6 6 7 9 10 9 9 9 8 8 7 7 7 7 7
2 2 2 3 3 3 3 4 6 6 8 7 8 9 9 8 8 9 9 9 8 8 8 9 8 7 8 8 8 8 8 8 9 9 9 9 8 8 9 7 10 11 11
3 3 3 3 4 5 5 6 6 6 7 8 9 9 11 11 9 9 9 9 9 9 9 9 9 10 10 10 10 10 9 9 10 10 10 9 9 9 10 10 7 9 12
5 4 4 5 5 6 6 6 5 6 6 6 6 8 9 8 7 8 8 8 8 8 10 10 11 11 12 12 11 11 11 11 11 10 10 10 10 10 10 9 10 10 9
6 6 6 6 6 6 7 6 7 6 5 5 5 6 7 8 7 8 8 9 8 9 11 12 12 12 12 12 12 12 12 11 10 11 10 11 10 10 10 10 9 10 12
6 6 6 6 6 7 6 7 7 7 7 7 5 6 7 7 7 7 8 9 11 11 11 12 13 12 12 12 12 12 12 12 12 12 11 11 11 11 10 10 10 10 9
6 6 6 7 7 6 6 6 6 7 7 7 7 8 7 8 7 7 8 12 12 13 13 12 12 12 13 13 13 13 13 12 13 13 13 12 11 10 11 10 10 10 10
6 7 7 7 7 6 6 7 7 7 7 7 7 8 10 11 12 12 11 13 13 14 14 13 12 12 13 13 13 13 13 13 14 14 14 13 12 11 11 10 10 11 10
6 6 7 7 7 7 6 7 7 7 7 7 7 10 13 13 12 13 10 12 14 16 16 14 13 13 13 13 13 14 14 15 15 15 15 14 13 13 12 10 12 11 10
7 7 7 7 7 7 6 6 7 7 7 7 7 8 12 12 9 12 12 12 13 15 15 15 14 14 14 14 14 15 15 16 17 16 16 15 14 13 12 12 12 15 13
6 6 7 7 6 6 6 6 6 6 6 7 8 8 8 8 10 11 13 11 11 13 15 15 15 15 15 15 14 15 16 17 17 16 17 16 14 14 14 14 14 14 17
6 6 7 6 6 6 6 6 5 6 6 6 6 7 8 8 11 12 13 12 13 11 15 15 14 15 15 16 16 16 16 17 17 17 17 16 15 15 15 16 15 14 18
6 6 6 6 6 6 6 6 5 5 5 5 6 6 8 8 10 10 12 12 13 14 15 16 14 14 15 15 16 17 18 17 18 18 17 15 16 16 17 16 17 16 18
6 6 6 6 6 5 5 5 5 5 6 6 5 7 7 9 10 11 12 13 13 14 15 15 14 14 14 14 15 16 17 17 18 18 17 15 16 18 19 18 18 18 17

GFSGL_con_lsi_033.txt.gz
Lid_Strength_Index
8 8 8 7 7 6 6 6 5 5 6 5 4 3 3 2 2 3 3 3 3 3 4 4 4 4 5 4 4 4 4 4 6 5 4 3 4 5 4 3 3 3 4
8 8 8 7 7 6 6 6 5 5 4 3 2 2 2 2 2 2 3 4 5 6 6 6 6 5 6 6 6 6 6 6 7 8 8 7 6 6 5 5 4 3 4
8 8 8 7 7 6 6 5 4 4 4 3 2 2 2 2 3 4 4 5 6 6 6 6 6 6 7 6 6 6 7 6 7 9 9 8 7 7 6 6 6 6 4
8 8 7 7 7 6 5 5 4 4 3 3 3 3 3 4 5 5 6 6 7 7 6 6 6 6 7 6 6 6 6 8 8 9 9 9 8 7 7 8 9 8 7
8 7 7 6 6 6 6 6 5 4 3 3 3 4 4 5 5 7 7 8 8 8 7 7 6 5 3 3 5 6 7 8 9 9 10 10 10 10 10 9 10 10 9
7 7 6 6 6 6 6 5 4 4 3 4 4 4 5 5 5 5 6 8 8 8 8 7 6 5 4 4 3 3 4 6 7 8 9 10 10 10 9 10 11 11 11
7 6 5 5 4 4 3 3 4 5 5 4 4 5 6 6 4 5 5 7 8 8 8 7 7 6 6 5 5 4 4 4 5 6 9 9 9 9 9 10 11 11 11
6 5 5 4 3 2 3 3 4 5 5 5 5 6 6 5 4 4 4 7 8 8 8 8 8 7 6 5 6 6 6 5 5 5 7 7 8 7 8 8 8 8 8
6 5 4 3 3 2 3 4 5 5 5 5 5 6 7 7 5 4 5 8 7 7 7 7 7 7 5 4 5 7 6 6 4 4 4 5 5 5 5 6 9 10 10
6 5 4 3 2 3 3 4 5 5 5 6 6 6 5 7 5 4 6 10 10 8 8 7 6 6 5 4 6 6 8 7 8 8 8 7 7 7 7 7 8 9 10
5 4 3 3 2 1 3 5 5 6 6 7 8 7 7 6 7 5 5 7 9 8 9 8 7 6 6 5 4 6 7 6 7 8 8 9 9 8 8 7 7 8 9
4 3 3 3 2 3 4 5 6 7 8 12 13 12 9 8 6 6 6 7 8 10 9 9 8 7 6 6 6 5 5 6 7 9 9 9 9 8 8 7 6 6 6
4 4 4 3 3 4 6 7 8 8 10 11 11 12 12 9 9 7 7 8 8 10 9 8 7 7 7 8 7 7 7 7 8 9 9 9 9 8 7 7 6 7 8
4 4 4 5 5 6 6 7 9 11 11 9 11 13 15 11 11 10 9 11 9 9 9 9 9 8 9 9 9 9 9 9 10 11 10 9 8 9 11 8 9 8 12
5 5 6 7 7 7 7 8 8 8 9 12 12 13 17 18 12 8 8 9 9 9 9 10 10 11 11 11 10 10 10 10 11 11 10 10 10 10 10 10 12 11 11
6 6 6 7 8 9 10 9 5 6 6 5 6 10 12 9 7 7 7 7 8 8 10 12 13 12 12 12 12 12 11 11 11 11 11 11 11 11 11 10 11 13 14
7 7 9 9 9 10 10 10 10 8 5 5 5 5 6 7 7 7 7 8 9 10 12 13 13 13 13 12 13 13 13 12 11 12 12 12 11 11 11 12 11 12 13
7 7 7 7 8 8 8 8 8 10 11 11 7 7 7 7 7 7 7 9 14 13 13 13 13 13 13 13 13 13 13 13 14 13 13 13 13 11 12 12 12 13 11
6 7 8 8 8 8 8 8 9 8 10 9 10 10 10 8 8 8 8 16 17 17 15 14 13 13 14 14 15 15 15 15 15 15 15 14 14 12 13 11 12 12 12
8 8 8 8 8 8 8 10 9 9 9 11 11 13 13 14 19 20 19 20 20 18 19 16 14 13 14 14 15 15 15 16 17 17 17 16 15 13 14 12 12 12 13
9 8 9 8 8 8 10 9 10 10 9 11 14 13 14 16 18 16 18 19 19 19 21 18 17 16 16 15 14 15 16 18 18 18 18 17 17 16 15 14 13 13 13
10 10 8 8 8 8 8 8 10 13 13 11 10 13 15 18 17 16 18 18 19 19 19 19 18 16 16 16 15 17 17 18 18 18 18 18 17 16 16 15 15 16 16
12 10 8 8 8 9 8 8 9 13 11 10 13 13 15 15 16 16 17 19 18 19 19 19 20 16 17 18 17 17 18 19 18 18 19 18 17 16 16 17 16 17 20
9 11 8 8 11 9 9 10 11 11 11 12 13 12 14 13 15 16 18 20 19 19 21 20 19 16 15 17 18 18 17 19 19 18 19 18 17 17 17 17 17 20 21
10 12 11 7 8 8 8 7 8 10 9 10 8 12 13 15 15 17 18 19 19 20 19 20 20 17 16 16 17 17 18 17 18 18 18 18 19 18 18 18 20 18 22
11 13 11 9 8 8 8 12 14 11 8 8 11 12 11 12 15 17 18 18 19 19 19 20 19 17 15 15 16 16 17 17 18 17 18 17 19 19 19 20 20 21 21